Overview Statistics Trail Chart Weather Telemetry Raw packets
 

This is the latest recevied weather packets stored in our database for station/object KC1BRV. If no packets are shown the sender has not sent any weather packets the latest 10 day(s).

<< 70 71 72 73 74 75 76 >>
Time Temp. Humidity Pressure Rain* Wind** Luminosity Snow
1788117526 27.22° C 52% 1019.4 hPa 0 mm - 224 W/m² -
1788117225 27.22° C 51% 1019.4 hPa 0 mm - 242 W/m² -
1788116922 27.22° C 51% 1019.5 hPa 0 mm - 231 W/m² -
1788116622 26.67° C 51% 1019.6 hPa 0 mm - 328 W/m² -
1788116320 26.11° C 53% 1019.9 hPa 0 mm - 207 W/m² -
1788116016 26.11° C 54% 1019.6 hPa 0 mm - 194 W/m² -
1788115711 26.11° C 52% 1019.9 hPa 0 mm - 124 W/m² -
1788115410 26.67° C 52% 1019.8 hPa 0 mm - 116 W/m² -
1788115105 26.67° C 54% 1020 hPa 0 mm - 194 W/m² -
1788114805 26.67° C 56% 1019.9 hPa 0 mm - 284 W/m² -
1788114495 26.67° C 54% 1019.8 hPa 0 mm - 225 W/m² -
1788114191 27.22° C 51% 1019.9 hPa 0 mm - 203 W/m² -
1788113887 27.22° C 51% 1019.9 hPa 0 mm - 254 W/m² -
1788113582 27.78° C 50% 1019.9 hPa 0 mm - 294 W/m² -
1788113282 27.22° C 50% 1020.1 hPa 0 mm - 562 W/m² -
1788112976 27.78° C 48% 1020.2 hPa 0 mm - 311 W/m² -
1788112675 27.78° C 47% 1020.3 hPa 0 mm - 310 W/m² -
1788112370 27.78° C 48% 1020.5 hPa 0 mm - 456 W/m² -
1788112064 28.33° C 48% 1020.5 hPa 0 mm - 775 W/m² -
1788111761 27.78° C 51% 1020.4 hPa 0 mm - 715 W/m² -
1788111460 27.78° C 50% 1020.5 hPa 0 mm - 736 W/m² -
1788111155 27.22° C 51% 1020.5 hPa 0 mm - 780 W/m² -
1788110852 27.22° C 50% 1020.4 hPa 0 mm - 468 W/m² -
1788110549 27.22° C 52% 1020.7 hPa 0 mm - 716 W/m² -
1788110244 27.22° C 52% 1020.7 hPa 0 mm - 486 W/m² -

* Rain latest hour (hover to see other rain measurements)
** Current wind speed in m/s (hover to see current wind gust speed)